KLM777 TNCM-TTPP

Flight info

Callsign KLM777
Flight time 1h 17m
Altitude 39000
Route MODOR2XELOPO/10 MODOR2 ELOPO UB520 ANU UM402 LIMBO
Aircraft B77W/H-SDE1E2E3FGHIJ2J3J4J5M1RWXY/LB1D1

Departure

Time 2026-05-01 07:50
Airport Princess Juliana International Airport (TNCM)

Arrival

Time 2026-05-01 09:07
Airport Piarco International Airport (TTPP)
Time Latitude Longitude Altitude Speed Heading
2026-05-01 07:23 18.04299 -63.11418 21 ft 0 kts 351°
2026-05-01 07:43 18.04293 -63.11418 21 ft 2 kts 353°
2026-05-01 07:43 18.04278 -63.11417 21 ft 2 kts
2026-05-01 07:43 18.04250 -63.11427 21 ft 2 kts 31°
2026-05-01 07:44 18.04228 -63.11447 21 ft 2 kts 55°
2026-05-01 07:44 18.04216 -63.11476 21 ft 1 kts 79°
2026-05-01 07:45 18.04215 -63.11480 21 ft 0 kts 81°
2026-05-01 07:46 18.04219 -63.11451 21 ft 8 kts 81°
2026-05-01 07:47 18.04231 -63.11370 22 ft 11 kts 84°
2026-05-01 07:47 18.04189 -63.11303 22 ft 12 kts 159°
2026-05-01 07:47 18.04100 -63.11282 24 ft 13 kts 171°
2026-05-01 07:47 18.04030 -63.11332 24 ft 15 kts 252°
2026-05-01 07:48 18.03978 -63.11663 24 ft 27 kts 261°
2026-05-01 07:48 18.03971 -63.11842 24 ft 9 kts 281°
2026-05-01 07:48 18.03990 -63.11911 25 ft 8 kts 274°
2026-05-01 07:49 18.03958 -63.11940 26 ft 5 kts 156°
2026-05-01 07:49 18.03962 -63.11789 24 ft 33 kts 82°
2026-05-01 07:49 18.04050 -63.11174 24 ft 137 kts 82°
2026-05-01 07:50 18.04225 -63.09907 446 ft 198 kts 82°
2026-05-01 07:50 18.04363 -63.07233 3249 ft 181 kts 102°
2026-05-01 07:50 18.03850 -63.05982 3891 ft 200 kts 125°
2026-05-01 07:51 18.02756 -63.04951 4554 ft 222 kts 151°
2026-05-01 07:51 18.01214 -63.04541 5237 ft 244 kts 180°
2026-05-01 07:51 17.99466 -63.04863 5971 ft 265 kts 192°
2026-05-01 07:52 17.95697 -63.05897 7788 ft 289 kts 194°
2026-05-01 07:52 17.93747 -63.06440 8866 ft 293 kts 195°
2026-05-01 07:52 17.91781 -63.06987 9851 ft 300 kts 195°
2026-05-01 07:53 17.87620 -63.08145 11625 ft 322 kts 196°
2026-05-01 07:53 17.85377 -63.08596 12428 ft 337 kts 185°
2026-05-01 07:53 17.83001 -63.08437 13189 ft 353 kts 169°
2026-05-01 07:53 17.80623 -63.07559 13923 ft 370 kts 154°
2026-05-01 07:54 17.76844 -63.03637 15236 ft 409 kts 119°
2026-05-01 07:55 17.76799 -62.94465 17446 ft 447 kts 76°
2026-05-01 07:55 17.77403 -62.87925 18961 ft 462 kts 94°
2026-05-01 07:56 17.74653 -62.78255 21360 ft 474 kts 116°
2026-05-01 07:56 17.71962 -62.71845 22943 ft 485 kts 116°
2026-05-01 07:57 17.70604 -62.68633 23661 ft 491 kts 117°
2026-05-01 07:57 17.67790 -62.62007 25016 ft 505 kts 116°
2026-05-01 07:58 17.64737 -62.55278 26424 ft 514 kts 123°
2026-05-01 07:58 17.60632 -62.49103 27704 ft 525 kts 128°
2026-05-01 07:59 17.56288 -62.42834 28903 ft 539 kts 128°
2026-05-01 07:59 17.51901 -62.36503 30564 ft 540 kts 129°
2026-05-01 08:00 17.43148 -62.23883 34215 ft 530 kts 130°
2026-05-01 08:01 17.36729 -62.14643 36852 ft 520 kts 130°
2026-05-01 08:01 17.34586 -62.11564 37442 ft 520 kts 130°
2026-05-01 08:01 17.32454 -62.08501 37963 ft 520 kts 130°
2026-05-01 08:02 17.28231 -62.02436 38939 ft 520 kts 130°
2026-05-01 08:03 17.21828 -61.93250 38975 ft 518 kts 130°
2026-05-01 08:03 17.14737 -61.84786 38981 ft 513 kts 148°
2026-05-01 08:04 17.08680 -61.81198 38981 ft 496 kts 165°
2026-05-01 08:04 17.02083 -61.79599 38988 ft 480 kts 181°
2026-05-01 08:05 16.92082 -61.78809 38978 ft 478 kts 182°
2026-05-01 08:06 16.82153 -61.78130 38973 ft 478 kts 182°
2026-05-01 08:07 16.68843 -61.77269 38973 ft 477 kts 182°
2026-05-01 08:08 16.58901 -61.76638 38975 ft 478 kts 182°
2026-05-01 08:09 16.45594 -61.75800 38982 ft 477 kts 182°
2026-05-01 08:09 16.38984 -61.75384 38995 ft 477 kts 182°
2026-05-01 08:10 16.25671 -61.74549 39024 ft 476 kts 182°
2026-05-01 08:11 16.12431 -61.73721 39005 ft 477 kts 182°
2026-05-01 08:12 16.02435 -61.73096 38981 ft 477 kts 182°
2026-05-01 08:13 15.92491 -61.72476 38975 ft 478 kts 181°
2026-05-01 08:13 15.82550 -61.71855 38972 ft 477 kts 182°
2026-05-01 08:14 15.75876 -61.71439 38970 ft 477 kts 181°
2026-05-01 08:14 15.69262 -61.71027 38971 ft 477 kts 182°
2026-05-01 08:15 15.59303 -61.70408 38967 ft 477 kts 181°
2026-05-01 08:16 15.52636 -61.69993 38968 ft 478 kts 182°
2026-05-01 08:16 15.46009 -61.69581 38964 ft 477 kts 182°
2026-05-01 08:17 15.39359 -61.69168 38963 ft 479 kts 182°
2026-05-01 08:17 15.32690 -61.68755 38964 ft 478 kts 182°
2026-05-01 08:18 15.26020 -61.68341 38962 ft 480 kts 182°
2026-05-01 08:19 15.12708 -61.67516 38963 ft 478 kts 182°
2026-05-01 08:19 15.06018 -61.67102 38959 ft 479 kts 182°
2026-05-01 08:20 14.99369 -61.66691 38963 ft 480 kts 182°
2026-05-01 08:20 14.92697 -61.66278 38959 ft 479 kts 182°
2026-05-01 08:21 14.86016 -61.65865 38961 ft 480 kts 182°
2026-05-01 08:21 14.79330 -61.65452 38958 ft 480 kts 182°
2026-05-01 08:22 14.72637 -61.65039 38963 ft 481 kts 181°
2026-05-01 08:22 14.65949 -61.64626 38961 ft 480 kts 181°
2026-05-01 08:23 14.59254 -61.64214 38958 ft 482 kts 181°
2026-05-01 08:23 14.52590 -61.63803 38959 ft 479 kts 181°
2026-05-01 08:24 14.45896 -61.63392 38958 ft 482 kts 181°
2026-05-01 08:24 14.39231 -61.62981 38957 ft 481 kts 181°
2026-05-01 08:25 14.32510 -61.62568 38956 ft 480 kts 181°
2026-05-01 08:25 14.25826 -61.62157 38958 ft 481 kts 181°
2026-05-01 08:26 14.19105 -61.61758 38948 ft 479 kts 184°
2026-05-01 08:26 14.12441 -61.61891 38957 ft 479 kts 186°
2026-05-01 08:27 14.05802 -61.62063 38954 ft 477 kts 186°
2026-05-01 08:27 13.99127 -61.62216 38955 ft 479 kts 186°
2026-05-01 08:28 13.92483 -61.62356 38955 ft 478 kts 186°
2026-05-01 08:28 13.85798 -61.62490 38955 ft 477 kts 186°
2026-05-01 08:29 13.79127 -61.62622 38954 ft 480 kts 185°
2026-05-01 08:29 13.72486 -61.62750 38955 ft 478 kts 186°
2026-05-01 08:30 13.65816 -61.62879 38955 ft 479 kts 185°
2026-05-01 08:30 13.59113 -61.63007 38955 ft 479 kts 185°
2026-05-01 08:31 13.52463 -61.63134 38953 ft 478 kts 185°
2026-05-01 08:31 13.45771 -61.63262 38954 ft 480 kts 185°
2026-05-01 08:32 13.39106 -61.63388 38955 ft 478 kts 185°
2026-05-01 08:32 13.32416 -61.63516 38956 ft 480 kts 185°
2026-05-01 08:33 13.25737 -61.63643 38954 ft 480 kts 185°
2026-05-01 08:33 13.19039 -61.63770 38955 ft 480 kts 185°
2026-05-01 08:34 13.12353 -61.63897 38954 ft 479 kts 185°
2026-05-01 08:34 13.05674 -61.64024 38955 ft 480 kts 185°
2026-05-01 08:35 12.99017 -61.64151 38954 ft 481 kts 185°
2026-05-01 08:35 12.92312 -61.64278 38956 ft 480 kts 185°
2026-05-01 08:36 12.85627 -61.64404 38953 ft 480 kts 185°
2026-05-01 08:36 12.78930 -61.64531 38971 ft 479 kts 185°
2026-05-01 08:37 12.72223 -61.64658 38993 ft 481 kts 185°
2026-05-01 08:37 12.65519 -61.64785 38991 ft 480 kts 185°
2026-05-01 08:38 12.58848 -61.64911 38992 ft 480 kts 185°
2026-05-01 08:38 12.52134 -61.65038 38989 ft 480 kts 185°
2026-05-01 08:39 12.45484 -61.65163 38992 ft 480 kts 185°
2026-05-01 08:39 12.38794 -61.65290 38993 ft 479 kts 185°
2026-05-01 08:40 12.28729 -61.65480 38992 ft 480 kts 185°
2026-05-01 08:40 12.25416 -61.65541 38745 ft 474 kts 185°
2026-05-01 08:40 12.22124 -61.65603 37831 ft 476 kts 185°
2026-05-01 08:41 12.18812 -61.65667 36887 ft 479 kts 185°
2026-05-01 08:41 12.15427 -61.65731 36087 ft 479 kts 185°
2026-05-01 08:41 12.12115 -61.65793 35325 ft 479 kts 185°
2026-05-01 08:41 12.08786 -61.65856 34489 ft 479 kts 184°
2026-05-01 08:42 12.05456 -61.65919 33624 ft 480 kts 184°
2026-05-01 08:42 12.02082 -61.65982 32760 ft 481 kts 184°
2026-05-01 08:42 11.98723 -61.66047 31915 ft 493 kts 184°
2026-05-01 08:42 11.95258 -61.66114 31037 ft 502 kts 183°
2026-05-01 08:43 11.91742 -61.66180 30394 ft 498 kts 182°
2026-05-01 08:43 11.88313 -61.66243 29965 ft 490 kts 182°
2026-05-01 08:43 11.84923 -61.66305 29442 ft 486 kts 182°
2026-05-01 08:43 11.81514 -61.66369 28861 ft 482 kts 182°
2026-05-01 08:44 11.78196 -61.66431 28227 ft 479 kts 182°
2026-05-01 08:44 11.74877 -61.66494 27552 ft 477 kts 181°
2026-05-01 08:44 11.71547 -61.66556 26918 ft 473 kts 181°
2026-05-01 08:44 11.68292 -61.66617 26329 ft 468 kts 182°
2026-05-01 08:45 11.65039 -61.66678 25733 ft 464 kts 181°
2026-05-01 08:45 11.61813 -61.66739 25122 ft 460 kts 181°
2026-05-01 08:45 11.58625 -61.66798 24426 ft 458 kts 181°
2026-05-01 08:45 11.55410 -61.66859 23764 ft 455 kts 182°
2026-05-01 08:46 11.52266 -61.66918 23162 ft 451 kts 182°
2026-05-01 08:46 11.49158 -61.66976 22562 ft 447 kts 182°
2026-05-01 08:46 11.46045 -61.67034 21960 ft 443 kts 182°
2026-05-01 08:46 11.42978 -61.67092 21323 ft 440 kts 181°
2026-05-01 08:47 11.39925 -61.67149 20616 ft 439 kts 181°
2026-05-01 08:47 11.36861 -61.67207 19959 ft 436 kts 181°
2026-05-01 08:47 11.33821 -61.67264 19330 ft 432 kts 181°
2026-05-01 08:47 11.30819 -61.67320 18717 ft 428 kts 181°
2026-05-01 08:48 11.27890 -61.67375 18117 ft 424 kts 180°
2026-05-01 08:48 11.24910 -61.67431 17481 ft 421 kts 180°
2026-05-01 08:48 11.21998 -61.67486 16781 ft 419 kts 180°
2026-05-01 08:48 11.19080 -61.67540 16117 ft 417 kts 180°
2026-05-01 08:49 11.16196 -61.67594 15484 ft 414 kts 180°
2026-05-01 08:49 11.13311 -61.67648 14861 ft 410 kts 180°
2026-05-01 08:49 11.10486 -61.67701 14252 ft 407 kts 180°
2026-05-01 08:49 11.07666 -61.67754 13635 ft 404 kts 180°
2026-05-01 08:50 11.04838 -61.67807 13017 ft 401 kts 180°
2026-05-01 08:50 11.02063 -61.67858 12408 ft 398 kts 180°
2026-05-01 08:50 10.99302 -61.67910 11795 ft 395 kts 180°
2026-05-01 08:50 10.96551 -61.67961 11183 ft 392 kts 180°
2026-05-01 08:51 10.93853 -61.68012 10818 ft 382 kts 180°
2026-05-01 08:51 10.91243 -61.68061 10661 ft 367 kts 180°
2026-05-01 08:51 10.88743 -61.68108 10459 ft 354 kts 180°
2026-05-01 08:51 10.86312 -61.68153 10231 ft 342 kts 180°
2026-05-01 08:52 10.83967 -61.68197 9989 ft 330 kts 180°
2026-05-01 08:52 10.81688 -61.68240 9544 ft 327 kts 180°
2026-05-01 08:52 10.79408 -61.68282 9275 ft 319 kts 180°
2026-05-01 08:52 10.77222 -61.68323 9205 ft 304 kts 180°
2026-05-01 08:53 10.75148 -61.68362 9063 ft 296 kts 180°
2026-05-01 08:53 10.73090 -61.68400 8729 ft 294 kts 180°
2026-05-01 08:53 10.71045 -61.68438 8376 ft 294 kts 180°
2026-05-01 08:53 10.68999 -61.68476 8020 ft 293 kts 180°
2026-05-01 08:54 10.66948 -61.68514 7662 ft 292 kts 180°
2026-05-01 08:54 10.64913 -61.68386 7291 ft 290 kts 165°
2026-05-01 08:54 10.63003 -61.67757 6937 ft 288 kts 163°
2026-05-01 08:54 10.61055 -61.67217 6579 ft 288 kts 164°
2026-05-01 08:55 10.59102 -61.66698 6219 ft 288 kts 164°
2026-05-01 08:55 10.57180 -61.66191 5864 ft 288 kts 164°
2026-05-01 08:55 10.55222 -61.65708 5491 ft 288 kts 171°
2026-05-01 08:55 10.53221 -61.65847 5108 ft 289 kts 197°
2026-05-01 08:56 10.51489 -61.66852 4728 ft 291 kts 223°
2026-05-01 08:56 10.50352 -61.68530 4346 ft 291 kts 249°
2026-05-01 08:56 10.50066 -61.70540 4095 ft 284 kts 277°
2026-05-01 08:56 10.50686 -61.72356 4078 ft 265 kts 304°
2026-05-01 08:57 10.51961 -61.73563 4061 ft 243 kts 335°
2026-05-01 08:57 10.53535 -61.73917 4061 ft 220 kts
2026-05-01 08:57 10.54860 -61.73399 4058 ft 198 kts 43°
2026-05-01 08:57 10.55635 -61.72295 4080 ft 189 kts 63°
2026-05-01 08:58 10.56222 -61.71107 4081 ft 185 kts 64°
2026-05-01 08:58 10.56774 -61.69928 4082 ft 184 kts 71°
2026-05-01 08:58 10.57153 -61.68686 4086 ft 184 kts 74°
2026-05-01 08:58 10.57505 -61.67429 4087 ft 184 kts 74°
2026-05-01 08:59 10.57850 -61.66190 4081 ft 177 kts 74°
2026-05-01 08:59 10.58239 -61.65051 4079 ft 168 kts 63°
2026-05-01 08:59 10.58823 -61.64026 4084 ft 163 kts 61°
2026-05-01 08:59 10.59258 -61.62988 4072 ft 157 kts 76°
2026-05-01 09:00 10.59418 -61.61899 4086 ft 157 kts 85°
2026-05-01 09:00 10.59463 -61.60777 4090 ft 157 kts 88°
2026-05-01 09:00 10.59472 -61.59675 4091 ft 157 kts 89°
2026-05-01 09:00 10.59471 -61.58557 4091 ft 156 kts 89°
2026-05-01 09:01 10.59468 -61.57489 4091 ft 148 kts 89°
2026-05-01 09:01 10.59467 -61.56446 3958 ft 142 kts 89°
2026-05-01 09:01 10.59468 -61.55466 3794 ft 138 kts 89°
2026-05-01 09:01 10.59469 -61.54493 3627 ft 136 kts 89°
2026-05-01 09:02 10.59473 -61.53527 3459 ft 135 kts 89°
2026-05-01 09:02 10.59476 -61.52581 3294 ft 134 kts 89°
2026-05-01 09:02 10.59479 -61.51643 3125 ft 133 kts 89°
2026-05-01 09:02 10.59482 -61.50700 2956 ft 132 kts 89°
2026-05-01 09:03 10.59485 -61.49773 2788 ft 132 kts 89°
2026-05-01 09:03 10.59489 -61.48837 2619 ft 131 kts 89°
2026-05-01 09:03 10.59492 -61.47916 2449 ft 131 kts 89°
2026-05-01 09:03 10.59495 -61.46987 2278 ft 130 kts 89°
2026-05-01 09:04 10.59498 -61.46071 2110 ft 130 kts 89°
2026-05-01 09:04 10.59501 -61.45152 1940 ft 130 kts 89°
2026-05-01 09:04 10.59504 -61.44235 1772 ft 129 kts 89°
2026-05-01 09:04 10.59507 -61.43318 1600 ft 129 kts 89°
2026-05-01 09:05 10.59510 -61.42413 1434 ft 130 kts 89°
2026-05-01 09:05 10.59513 -61.41486 1260 ft 131 kts 89°
2026-05-01 09:05 10.59516 -61.40544 1085 ft 132 kts 89°
2026-05-01 09:05 10.59519 -61.39612 912 ft 133 kts 89°
2026-05-01 09:06 10.59522 -61.38666 732 ft 135 kts 89°
2026-05-01 09:06 10.59531 -61.37712 559 ft 136 kts 89°
2026-05-01 09:06 10.59529 -61.36743 388 ft 138 kts 90°
2026-05-01 09:06 10.59528 -61.35761 221 ft 140 kts 89°
2026-05-01 09:07 10.59529 -61.34765 84 ft 138 kts 90°
2026-05-01 09:07 10.59525 -61.33899 74 ft 102 kts 89°
2026-05-01 09:07 10.59531 -61.33331 77 ft 57 kts 90°
2026-05-01 09:07 10.59531 -61.33080 79 ft 16 kts 90°
2026-05-01 09:08 10.59544 -61.32971 80 ft 14 kts 53°
2026-05-01 09:08 10.59637 -61.32954 80 ft 13 kts 359°
2026-05-01 09:08 10.59697 -61.33012 80 ft 13 kts 281°
2026-05-01 09:08 10.59701 -61.33107 79 ft 13 kts 270°
2026-05-01 09:09 10.59701 -61.33205 78 ft 13 kts 270°
2026-05-01 09:09 10.59701 -61.33306 77 ft 14 kts 269°
2026-05-01 09:09 10.59699 -61.33409 77 ft 15 kts 269°
2026-05-01 09:09 10.59699 -61.33541 76 ft 21 kts 270°
2026-05-01 09:10 10.59700 -61.33671 75 ft 10 kts 271°
2026-05-01 09:10 10.59735 -61.33729 74 ft 10 kts 347°
2026-05-01 09:10 10.59810 -61.33729 74 ft 11 kts
2026-05-01 09:10 10.59919 -61.33728 75 ft 19 kts
2026-05-01 09:11 10.60050 -61.33733 75 ft 18 kts 341°
2026-05-01 09:11 10.60078 -61.33815 75 ft 7 kts 233°
2026-05-01 09:11 10.60051 -61.33852 74 ft 0 kts 234°
2026-05-01 09:11 10.60049 -61.33855 74 ft 1 kts 234°
2026-05-01 09:12 10.60048 -61.33857 74 ft 0 kts 234°